Location: Barcelona
(41.3830°N, 2.1830°E)
Time: 22:53:43
(UTC+02:00)

ISS - Pass Details

Date: 22 July 2017
Orbit: 400 x 408 km, 51.6° (Epoch: 24 July)

Event Time Altitude Azimuth Distance (km) Brightness Sun altitude
Rises 22:35:06 0° 211° (SSW) 2,296 -0.1 -12.7°
Reaches altitude 10° 22:37:17 10° 200° (SSW) 1,441 -1.3 -13.0°
Maximum altitude 22:40:11 31° 137° (SE) 727 -3.1 -13.4°
Drops below altitude 10° 22:43:06 10° 72° (ENE) 1,449 -1.3 -13.8°
Sets 22:45:19 0° 62° (ENE) 2,312 -0.2 -14.1°
